AURORASAT

Last updated on Tue Oct 10 2023 00:02:07 GMT+0000 (Coordinated Universal Time)

1 56312U 98067VD 23281.78985914 .04178270 11931-4 16177-2 0 9996 2 56312 51.6146 104.5825 0010775 273.9045 86.0743 16.23078993 26270

Satellite not in orbit